Weather History for Bennington, VT

Change the Weather History Date:

Monday, March 25, 2013

  Actual Average Record
Temperature  
Mean Temperature 34 °F 36 °F  
Max Temperature 43 °F 47 °F 64 °F (2003)
Min Temperature 25 °F 26 °F 9 °F (2014)
Degree Days  
Heating Degree Days 31 28  
Month to date heating degree days 854 822  
Since 1 July heating degree days 5638 6073  
Cooling Degree Days 0 0  
Month to date cooling degree days 0 0  
Year to date cooling degree days 0 0  
Moisture  
Dew Point 21 °F    
Average Humidity 58    
Maximum Humidity 75    
Minimum Humidity 41    
Precipitation  
Precipitation 0.00 in 0.11 in 0.18 in (2012)
Month to date precipitation 1.05 2.52  
Year to date precipitation 3.71 7.51  
Sea Level Pressure  
Sea Level Pressure 29.63 in    
Wind  
Wind Speed 3 mph (ENE)    
Max Wind Speed 10 mph    
Max Gust Speed 17 mph    
Visibility 10 miles    
Events      
T = Trace of Precipitation, MM = Missing Value Source: NWS Daily Summary

Daily Weather History Graph

Daily Weather History Graph

Search for Another Location

Airport:

Trip Planner

Search our weather history database for the weather conditions in past years. The results will help you decide how hot, cold, wet, or windy it might be!

Date:

Astronomy

Mar. 25, 2013 Rise Set
Actual Time 6:47 AM EDT 7:11 PM EDT
Civil Twilight 6:18 AM EDT 7:39 PM EDT
Nautical Twilight 5:45 AM EDT 8:13 PM EDT
Astronomical Twilight 5:11 AM EDT 8:47 PM EDT
Moon 5:38 PM EDT (3/25) 5:31 AM EDT (3/25)
Length of Visible Light 13h 21m
Length of Day
12h 24m
Waxing Gibbous, 96% of the Moon is Illuminated
Mar 25
Waxing Gibbous
Mar 27
Full
Apr 3
Last Quarter
Apr 10
New
Apr 18
First Quarter

Hourly Weather History & Observations

Time (EDT) Temp. Windchill Dew Point Humidity Pressure Visibility Wind Dir Wind Speed Gust Speed Precip Events Conditions
12:54 AM 28.9 °F - 21.0 °F 72% 29.76 in 10.0 mi Calm Calm - N/A   Clear
1:54 AM 26.1 °F - 19.9 °F 78% 29.75 in 10.0 mi Calm Calm - N/A   Clear
2:54 AM 30.0 °F - 19.0 °F 64% 29.73 in 10.0 mi Calm Calm - N/A   Clear
3:54 AM 28.9 °F - 19.0 °F 67% 29.71 in 10.0 mi Calm Calm - N/A   Clear
4:54 AM 28.0 °F - 19.0 °F 69% 29.70 in 10.0 mi Calm Calm - N/A   Clear
6:54 AM 30.9 °F - 19.0 °F 61% 29.69 in 10.0 mi Calm Calm - N/A   Clear
7:54 AM 33.1 °F 30.0 °F 19.9 °F 59% 29.70 in 10.0 mi NE 3.5 mph - N/A   Clear
8:54 AM 35.1 °F - 21.9 °F 59% 29.69 in 10.0 mi Calm Calm - N/A   Clear
9:54 AM 39.0 °F 34.8 °F 23.0 °F 53% 29.67 in 10.0 mi NE 5.8 mph - N/A   Clear
10:54 AM 39.9 °F 36.7 °F 23.0 °F 51% 29.65 in 10.0 mi Variable 4.6 mph - N/A   Partly Cloudy
11:54 AM 42.1 °F 39.2 °F 23.0 °F 47% 29.63 in 10.0 mi NE 4.6 mph - N/A   Overcast
12:54 PM 42.1 °F 36.6 °F 21.0 °F 43% 29.61 in 10.0 mi ESE 9.2 mph - N/A   Mostly Cloudy
1:54 PM 42.1 °F 36.6 °F 21.0 °F 43% 29.59 in 10.0 mi East 9.2 mph 16.1 mph N/A   Overcast
2:54 PM 42.1 °F 37.1 °F 21.0 °F 43% 29.56 in 10.0 mi East 8.1 mph - N/A   Overcast
3:54 PM 41.0 °F 35.8 °F 21.0 °F 45% 29.53 in 10.0 mi NE 8.1 mph - N/A   Overcast
4:54 PM 41.0 °F 38.0 °F 21.0 °F 45% 29.53 in 10.0 mi NE 4.6 mph - N/A   Unknown
5:54 PM 41.0 °F 37.1 °F 19.9 °F 43% 29.55 in 10.0 mi NE 5.8 mph - N/A   Overcast
6:54 PM 39.9 °F 35.8 °F 19.0 °F 43% 29.56 in 10.0 mi Variable 5.8 mph - N/A   Overcast
7:54 PM 39.0 °F 36.8 °F 19.9 °F 46% 29.57 in 10.0 mi North 3.5 mph - N/A   Overcast
8:54 PM 37.9 °F - 24.1 °F 57% 29.58 in 10.0 mi Calm Calm - N/A   Overcast
9:54 PM 37.0 °F - 21.9 °F 54% 29.59 in 10.0 mi Calm Calm - N/A   Overcast
10:54 PM 35.1 °F - 23.0 °F 61% 29.60 in 10.0 mi Calm Calm - N/A   Overcast
11:54 PM 33.1 °F 30.0 °F 23.0 °F 66% 29.59 in 10.0 mi South 3.5 mph - N/A   Overcast